Change the Weather History Date:

Friday, October 19, 2012

  Actual Average Record
Temperature  
Mean Temperature 48 °F 51 °F  
Max Temperature 52 °F 61 °F 76 °F (2000)
Min Temperature 43 °F 42 °F 30 °F (1996)
Degree Days  
Heating Degree Days 17 14  
Month to date heating degree days 252 214  
Since 1 July heating degree days 386 326  
Cooling Degree Days 0 0  
Month to date cooling degree days 0 11  
Year to date cooling degree days 1225 789  
Moisture  
Dew Point 42 °F    
Average Humidity 85    
Maximum Humidity 93    
Minimum Humidity 66    
Precipitation  
Precipitation 0.01 in 0.10 in 0.27 in (2011)
Month to date precipitation 2.28 1.86  
Year to date precipitation 18.57 27.55  
Sea Level Pressure  
Sea Level Pressure 29.51 in    
Wind  
Wind Speed 5 mph (SSW)    
Max Wind Speed 16 mph    
Max Gust Speed 18 mph    
Visibility 10 miles    
Events Rain    
T = Trace of Precipitation, MM = Missing Value Source: NWS Daily Summary

Daily Weather History Graph

Daily Weather History Graph

Search for Another Location

Airport or City:

Trip Planner

Search our weather history database for the weather conditions in past years. The results will help you decide how hot, cold, wet, or windy it might be!

Date:

Astronomy

Oct. 19, 2012 Rise Set
Actual Time 7:09 AM CDT 6:02 PM CDT
Civil Twilight 6:41 AM CDT 6:31 PM CDT
Nautical Twilight 6:08 AM CDT 7:03 PM CDT
Astronomical Twilight 5:36 AM CDT 7:36 PM CDT
Moon 11:55 AM CDT (10/19) 9:37 PM CDT (10/19)
Length of Visible Light 11h 50m
Length of Day
10h 53m
Waxing Crescent, 24% of the Moon is Illuminated
Oct 19
Waxing Crescent
Oct 21
First Quarter
Oct 29
Full
Nov 6
Last Quarter
Nov 13
New

Hourly Weather History & Observations

Time (CDT) Temp. Windchill Dew Point Humidity Pressure Visibility Wind Dir Wind Speed Gust Speed Precip Events Conditions
12:16 AM 44.6 °F 38.8 °F 41.0 °F 87% 29.48 in 10.0 mi South 11.5 mph - 0.00 in   Overcast
12:47 AM 44.6 °F 38.4 °F 41.0 °F 87% 29.47 in 10.0 mi South 12.7 mph - 0.00 in   Overcast
12:52 AM 45.0 °F 39.3 °F 41.0 °F 86% 29.48 in 10.0 mi South 11.5 mph - 0.00 in   Overcast
1:30 AM 44.6 °F 38.4 °F 41.0 °F 87% 29.47 in 10.0 mi South 12.7 mph - N/A   Overcast
1:45 AM 44.6 °F 38.4 °F 41.0 °F 87% 29.47 in 10.0 mi South 12.7 mph - N/A   Overcast
1:52 AM 45.0 °F 40.1 °F 41.0 °F 86% 29.48 in 10.0 mi South 9.2 mph - N/A   Overcast
2:32 AM 44.6 °F 39.2 °F 42.8 °F 93% 29.47 in 7.0 mi South 10.4 mph - N/A   Overcast
2:52 AM 45.0 °F 40.1 °F 42.1 °F 90% 29.47 in 10.0 mi South 9.2 mph - N/A   Overcast
3:08 AM 44.6 °F 39.2 °F 41.0 °F 87% 29.46 in 10.0 mi South 10.4 mph - N/A   Overcast
3:52 AM 45.0 °F 40.6 °F 41.0 °F 86% 29.47 in 10.0 mi South 8.1 mph - N/A   Overcast
4:21 AM 44.6 °F 40.7 °F 41.0 °F 87% 29.46 in 10.0 mi South 6.9 mph - N/A   Overcast
4:39 AM 44.6 °F 39.7 °F 42.8 °F 93% 29.45 in 9.0 mi SSE 9.2 mph - N/A   Overcast
4:52 AM 45.0 °F 41.8 °F 42.1 °F 90% 29.47 in 8.0 mi SSE 5.8 mph - N/A   Overcast
5:14 AM 44.6 °F 41.4 °F 42.8 °F 93% 29.46 in 10.0 mi SSE 5.8 mph - N/A   Overcast
5:43 AM 44.6 °F 42.2 °F 42.8 °F 93% 29.46 in 10.0 mi SSE 4.6 mph - N/A   Overcast
5:52 AM 45.0 °F 42.6 °F 42.1 °F 90% 29.47 in 8.0 mi SSE 4.6 mph - N/A   Overcast
6:52 AM 45.0 °F 41.8 °F 42.1 °F 90% 29.47 in 10.0 mi SSE 5.8 mph - N/A   Overcast
7:52 AM 45.0 °F 43.5 °F 43.0 °F 93% 29.47 in 10.0 mi SE 3.5 mph - N/A   Overcast
8:04 AM 46.4 °F - 42.8 °F 87% 29.47 in 10.0 mi Calm Calm - N/A   Overcast
8:15 AM 46.4 °F - 42.8 °F 87% 29.47 in 10.0 mi Calm Calm - N/A   Overcast
8:24 AM 46.4 °F - 42.8 °F 87% 29.47 in 10.0 mi Calm Calm - N/A   Overcast
8:52 AM 46.0 °F 44.8 °F 43.0 °F 89% 29.49 in 10.0 mi South 3.5 mph - N/A   Overcast
8:54 AM 46.4 °F - 42.8 °F 87% 29.48 in 10.0 mi Calm Calm - N/A   Overcast
9:52 AM 46.0 °F - 43.0 °F 89% 29.49 in 5.0 mi Calm Calm - 0.01 in Rain Light Rain
10:52 AM 48.9 °F - 43.0 °F 80% 29.50 in 10.0 mi West 3.5 mph - N/A   Overcast
10:56 AM 48.2 °F - 42.8 °F 82% 29.49 in 10.0 mi West 5.8 mph - N/A   Overcast
11:52 AM 50.0 °F - 42.1 °F 74% 29.51 in 10.0 mi WNW 4.6 mph - N/A   Overcast
12:52 PM 48.9 °F - 43.0 °F 80% 29.51 in 10.0 mi WNW 6.9 mph - 0.00 in Rain Light Rain
1:52 PM 51.1 °F - 41.0 °F 68% 29.52 in 10.0 mi NW 8.1 mph - 0.00 in   Overcast
2:52 PM 52.0 °F - 41.0 °F 66% 29.52 in 10.0 mi Variable 3.5 mph - N/A   Mostly Cloudy
3:52 PM 51.1 °F - 41.0 °F 68% 29.55 in 10.0 mi WNW 8.1 mph - N/A   Overcast
4:52 PM 48.9 °F - 41.0 °F 74% 29.57 in 10.0 mi NW 3.5 mph - 0.00 in   Overcast
5:52 PM 48.9 °F - 41.0 °F 74% 29.59 in 10.0 mi West 4.6 mph - N/A   Overcast
6:52 PM 46.9 °F - 42.1 °F 83% 29.61 in 10.0 mi WNW 4.6 mph - N/A   Clear
7:52 PM 46.0 °F 43.9 °F 42.1 °F 86% 29.63 in 10.0 mi West 4.6 mph - N/A   Partly Cloudy
8:52 PM 46.0 °F 43.1 °F 42.1 °F 86% 29.64 in 10.0 mi West 5.8 mph - N/A   Mostly Cloudy
9:52 PM 46.9 °F - 42.1 °F 83% 29.65 in 10.0 mi WNW 6.9 mph - N/A   Overcast
10:52 PM 46.0 °F 43.9 °F 42.1 °F 86% 29.65 in 10.0 mi NW 4.6 mph - N/A   Mostly Cloudy
11:52 PM 46.0 °F 43.1 °F 41.0 °F 83% 29.66 in 10.0 mi WNW 5.8 mph - N/A   Overcast